CDT,Max TemperatureF,Mean TemperatureF,Min TemperatureF,Max Dew PointF,MeanDew PointF,Min DewpointF,Max Humidity, Mean Humidity, Min Humidity, Max Sea Level PressureIn, Mean Sea Level PressureIn, Min Sea Level PressureIn, Max VisibilityMiles, Mean VisibilityMiles, Min VisibilityMiles, Max Wind SpeedMPH, Mean Wind SpeedMPH, Max Gust SpeedMPH,PrecipitationIn, CloudCover, Events, WindDirDegrees
2012-3-1,28,21,13,25,20,10,96,89,81,29.77,29.61,29.53,8,3,0,22,7,26,0.05,8,Fog-Snow,138
2012-3-2,27,22,16,22,20,12,88,82,75,29.97,29.74,29.57,10,4,1,28,19,35,0.02,8,Snow,303
2012-3-3,22,17,11,18,11,7,92,80,67,30.00,29.91,29.78,10,8,2,18,9,22,T,6,Snow,267
2012-3-4,32,26,20,25,21,18,88,80,72,30.08,29.91,29.66,10,8,3,18,10,22,T,7,Snow,282
2012-3-5,51,38,25,35,28,22,89,71,53,29.96,29.69,29.52,10,10,6,17,8,23,T,3,Snow,195
2012-3-6,41,34,26,31,27,25,92,81,70,29.77,29.53,29.37,10,5,0,18,9,24,T,6,Fog-Snow,305
2012-3-7,32,24,16,28,18,10,96,77,58,30.09,29.94,29.71,10,9,3,22,12,28,T,5,Snow,297
2012-3-8,35,26,17,26,17,7,84,64,43,30.49,30.25,30.04,10,10,10,26,14,35,T,3,,294
2012-3-9,49,33,17,33,22,8,74,62,49,30.46,30.09,29.76,10,10,10,20,12,28,0.00,0,,164
2012-3-10,64,49,34,37,30,25,82,56,30,29.77,29.75,29.72,10,10,10,18,10,23,0.00,0,,218
2012-3-11,62,44,26,43,35,24,92,68,43,29.74,29.58,29.42,10,10,10,18,4,25,0.00,0,,125
2012-3-12,55,44,33,42,29,18,86,56,26,29.83,29.60,29.39,10,10,10,35,17,41,0.00,0,,253
2012-3-13,68,49,30,38,29,20,72,51,30,29.83,29.63,29.40,10,10,10,21,9,26,0.00,0,,146
2012-3-14,56,44,31,31,19,10,56,38,19,30.00,29.84,29.42,10,10,10,45,12,58,0.00,1,,248
2012-3-15,64,48,31,34,27,21,72,51,30,29.99,29.93,29.81,10,10,10,21,10,26,0.00,1,,160
2012-3-16,73,61,48,39,35,30,61,44,27,29.79,29.59,29.48,10,10,10,25,13,35,0.00,0,,172
2012-3-17,69,56,42,44,38,34,83,57,30,29.71,29.62,29.52,10,10,5,18,8,23,0.00,0,,3
2012-3-18,77,60,42,51,45,39,100,66,31,29.50,29.37,29.27,10,5,0,16,6,21,0.01,3,Fog,110
2012-3-19,66,52,37,55,38,15,86,51,15,29.54,29.28,29.16,10,10,10,28,16,35,0.00,2,,178
2012-3-20,56,45,34,27,22,16,75,48,20,29.83,29.75,29.56,10,10,10,28,17,37,0.00,0,,212
2012-3-21,64,49,34,32,25,22,70,48,25,29.99,29.89,29.75,10,10,10,23,9,29,0.00,1,,221
2012-3-22,74,51,27,47,31,23,92,54,15,30.03,29.96,29.88,10,10,10,21,8,26,0.00,0,,160
2012-3-23,62,51,40,54,48,41,100,86,72,29.95,29.90,29.84,10,5,0,13,5,16,0.00,4,Fog,124
2012-3-24,51,38,25,52,37,23,96,77,57,30.33,30.06,29.84,10,7,0,29,14,33,0.04,6,Fog-Rain-Thunderstorm,317
2012-3-25,47,35,22,28,25,21,96,71,45,30.35,30.28,30.21,10,10,10,22,11,26,0.00,4,,67
2012-3-26,54,43,32,41,33,24,82,66,50,30.19,29.79,29.47,10,10,8,29,18,36,T,7,,108
2012-3-27,42,37,32,38,35,30,92,86,79,29.99,29.62,29.36,10,7,2,31,16,38,0.61,8,Rain,296
2012-3-28,45,38,31,36,33,30,96,83,70,30.12,30.01,29.94,10,10,10,20,8,24,0.00,6,,118
2012-3-29,58,47,35,41,36,33,92,72,51,29.95,29.85,29.76,10,10,7,17,7,22,0.00,4,,94
2012-3-30,73,53,32,39,35,30,92,57,22,29.76,29.62,29.47,10,8,2,26,10,33,0.00,0,,175
2012-3-31,70,59,47,39,34,30,59,42,25,29.68,29.60,29.46,10,9,5,18,8,25,0.00,1,,262